FW9086 Weather Reports


Display with metric or nautical units.
time (UTC)temp
F
wind
direction
speed
MPH
gust
MPH
rain 1hr
in
rain 24hr
in
rain mn
in
humidity
%
barometer
mb
20260508022019 47 144 0.0 0.0 0.00 0.00 0.00 89 1011.4
20260508021515 47 144 0.0 0.0 0.00 0.00 0.00 89 1011.5
20260508021011 47 144 0.0 0.0 0.00 0.00 0.00 88 1011.2
20260508020509 47 144 0.0 0.0 0.00 0.00 0.00 88 1011.2
20260508020007 48 144 0.0 0.0 0.00 0.00 0.00 89 1011.3
20260508015504 48 144 0.0 0.0 0.00 0.00 0.00 90 1011.2
20260508015001 48 144 0.0 0.0 0.00 0.00 0.00 90 1011.0
20260508014457 48 144 0.0 0.0 0.00 0.00 0.00 89 1011.2
20260508013953 48 144 0.0 0.0 0.00 0.00 0.00 89 1010.9
20260508013449 48 144 0.0 0.0 0.00 0.00 0.00 88 1011.0
20260508012947 49 145 0.0 0.0 0.00 0.00 0.00 87 1011.0
20260508012444 49 154 0.0 0.0 0.00 0.00 0.00 86 1011.0
20260508011941 49 154 0.0 0.0 0.00 0.00 0.00 85 1010.9
20260508011439 49 151 0.0 0.0 0.00 0.00 0.00 84 1011.0
20260508010936 50 144 0.0 0.0 0.00 0.00 0.00 83 1011.0
20260508010433 50 152 0.0 0.0 0.00 0.00 0.00 82 1010.9
20260508005930 50 152 0.0 0.0 0.00 0.00 0.00 81 1011.0
20260508005427 51 161 0.0 0.0 0.00 0.00 0.00 80 1010.9
20260508004923 51 160 0.0 0.0 0.00 0.00 0.00 79 1011.0
20260508004419 51 153 0.0 0.0 0.00 0.00 0.00 80 1011.1
20260508003916 52 155 0.0 0.0 0.00 0.00 0.00 79 1011.2
20260508003413 52 154 0.0 0.0 0.00 0.00 0.00 78 1011.5
20260508002911 52 157 0.0 0.0 0.00 0.00 0.00 78 1011.2
20260508002407 52 154 0.0 0.0 0.00 0.00 0.00 80 1011.5
20260508001903 52 155 0.0 0.0 0.00 0.00 0.00 78 1011.4
20260508001359 52 155 0.0 0.0 0.00 0.00 0.00 79 1011.6
20260508000856 52 155 0.0 0.0 0.00 0.00 0.00 78 1011.3
20260508000352 52 154 0.0 0.0 0.00 0.00 0.00 77 1011.4
20260507235848 52 156 0.0 0.0 0.00 0.00 0.00 77 1011.4
20260507235346 52 163 0.0 0.0 0.00 0.00 0.00 77 1011.5
20260507234843 53 185 0.0 0.0 0.00 0.00 0.00 77 1011.5
20260507234339 53 129 0.0 0.0 0.00 0.00 0.00 76 1011.5
20260507233836 53 134 0.0 0.0 0.00 0.00 0.00 77 1011.6
20260507233334 53 251 0.0 0.0 0.00 0.00 0.00 77 1011.6
20260507232832 53 119 0.0 0.0 0.00 0.00 0.00 75 1011.6
20260507232328 53 133 0.0 0.0 0.00 0.00 0.00 76 1011.6
20260507231825 53 287 0.0 0.0 0.00 0.00 0.00 74 1011.8
20260507231322 53 36 2.0 2.0 0.00 0.00 0.00 73 1011.6
20260507230818 55 163 0.0 1.0 0.00 0.00 0.00 70 1011.9
20260507230316 57 74 2.0 3.0 0.00 0.00 0.00 61 1011.9
20260507225815 57 151 0.0 0.0 0.00 0.00 0.00 52 1011.3
20260507225312 57 215 0.0 0.0 0.00 0.00 0.00 56 1011.5
20260507224808 58 259 2.0 2.0 0.00 0.00 0.00 50 1011.3
20260507224304 58 247 4.0 5.0 0.00 0.00 0.00 52 1011.2
20260507223801 58 251 4.0 5.0 0.00 0.00 0.00 49 1011.3
20260507223257 59 237 3.0 3.0 0.00 0.00 0.00 49 1011.4
20260507222754 59 256 5.0 5.0 0.00 0.00 0.00 46 1011.1
20260507222250 59 248 3.0 3.0 0.00 0.00 0.00 49 1011.1
20260507221748 60 254 4.0 5.0 0.00 0.00 0.00 46 1010.8
20260507221244 60 267 5.0 6.0 0.00 0.00 0.00 42 1011.0
20260507220740 60 179 1.0 1.0 0.00 0.00 0.00 47 1010.8
20260507220239 60 202 1.0 1.0 0.00 0.00 0.00 46 1010.8
20260507215734 60 270 4.0 5.0 0.00 0.00 0.00 46 1010.6
20260507215232 59 261 4.0 5.0 0.00 0.00 0.00 48 1010.8
20260507214729 60 246 4.0 5.0 0.00 0.00 0.00 45 1010.7
20260507214226 60 180 3.0 3.0 0.00 0.00 0.00 44 1010.7
20260507213722 59 202 0.0 0.0 0.00 0.00 0.00 49 1010.8
20260507213219 60 241 4.0 5.0 0.00 0.00 0.00 47 1010.8
20260507212715 61 276 4.0 5.0 0.00 0.00 0.00 47 1010.7
20260507212212 61 258 3.0 3.0 0.00 0.00 0.00 43 1010.8
20260507211709 60 197 0.0 1.0 0.00 0.00 0.00 46 1010.7
20260507211204 61 241 3.0 5.0 0.00 0.00 0.00 43 1010.9
20260507210702 61 203 2.0 2.0 0.00 0.00 0.00 45 1010.8
20260507210158 62 223 3.0 5.0 0.00 0.00 0.00 43 1010.8
20260507205655 62 293 3.0 3.0 0.00 0.00 0.00 42 1011.0
20260507205152 62 247 3.0 3.0 0.00 0.00 0.00 48 1010.9
20260507204648 60 155 0.0 1.0 0.00 0.00 0.00 50 1011.0
20260507204146 61 144 0.0 0.0 0.00 0.00 0.00 44 1011.1
20260507203644 63 235 2.0 2.0 0.00 0.00 0.00 45 1011.0
20260507203141 63 257 2.0 2.0 0.00 0.00 0.00 43 1011.1
20260507202636 61 267 2.0 2.0 0.00 0.00 0.00 47 1011.4
20260507202133 62 253 4.0 5.0 0.00 0.00 0.00 40 1011.3
20260507201628 60 242 2.0 2.0 0.00 0.00 0.00 45 1011.4
20260507201125 64 254 2.0 3.0 0.00 0.00 0.00 42 1011.6
20260507200621 64 257 2.0 2.0 0.00 0.00 0.00 39 1011.7
20260507200117 63 274 4.0 5.0 0.00 0.00 0.00 44 1011.6
20260507195614 63 207 3.0 3.0 0.00 0.00 0.00 43 1011.9
20260507195112 63 173 2.0 2.0 0.00 0.00 0.00 40 1011.7
20260507194608 63 47 0.0 0.0 0.00 0.00 0.00 45 1011.7
20260507194103 64 271 1.0 2.0 0.00 0.00 0.00 43 1012.0
20260507193601 63 255 4.0 5.0 0.00 0.00 0.00 41 1012.1
20260507193057 62 255 7.0 8.0 0.00 0.00 0.00 44 1012.2
20260507192554 62 230 1.0 2.0 0.00 0.00 0.00 38 1012.1
20260507192051 62 220 2.0 2.0 0.00 0.00 0.00 42 1012.2
20260507191546 65 215 0.0 0.0 0.00 0.00 0.00 39 1012.3
20260507191044 64 74 1.0 1.0 0.00 0.00 0.00 43 1012.1
20260507190541 64 260 4.0 6.0 0.00 0.00 0.00 44 1012.1
20260507190039 62 213 1.0 1.0 0.00 0.00 0.00 48 1012.3
20260507185537 63 234 3.0 3.0 0.00 0.00 0.00 43 1012.5
20260507185033 65 177 0.0 1.0 0.00 0.00 0.00 51 1012.5
20260507184532 67 203 0.0 0.0 0.00 0.00 0.00 45 1012.4
20260507184030 66 66 0.0 0.0 0.00 0.00 0.00 42 1012.5
20260507183525 64 11 1.0 1.0 0.00 0.00 0.00 40 1012.6
20260507183023 61 272 1.0 1.0 0.00 0.00 0.00 43 1012.6
20260507182519 61 258 3.0 3.0 0.00 0.00 0.00 46 1012.8
20260507182015 61 231 3.0 3.0 0.00 0.00 0.00 48 1012.5
20260507181512 62 157 0.0 1.0 0.00 0.00 0.00 49 1012.8
20260507181008 61 169 1.0 1.0 0.00 0.00 0.00 50 1012.5
20260507180504 61 173 0.0 0.0 0.00 0.00 0.00 48 1012.5
20260507180001 60 40 1.0 2.0 0.00 0.00 0.00 40 1012.4
20260507175457 62 25 1.0 2.0 0.00 0.00 0.00 52 1012.8
20260507174955 64 250 0.0 1.0 0.00 0.00 0.00 46 1013.1
20260507174452 62 204 1.0 1.0 0.00 0.00 0.00 52 1013.0
20260507173950 62 125 0.0 1.0 0.00 0.00 0.00 53 1013.2
20260507173447 61 267 4.0 5.0 0.00 0.00 0.00 41 1013.2
20260507172944 61 219 1.0 2.0 0.00 0.00 0.00 57 1013.2
20260507172440 60 149 0.0 0.0 0.00 0.00 0.00 52 1013.2
20260507171937 63 245 4.0 5.0 0.00 0.00 0.00 44 1013.1
20260507171432 62 154 0.0 0.0 0.00 0.00 0.00 50 1013.5
20260507170930 62 260 2.0 3.0 0.00 0.00 0.00 44 1013.5
20260507170426 62 248 3.0 3.0 0.00 0.00 0.00 44 1013.5
20260507165923 60 113 0.0 0.0 0.00 0.00 0.00 48 1013.5
20260507165419 60 41 3.0 3.0 0.00 0.00 0.00 42 1013.5
20260507164914 61 242 3.0 5.0 0.00 0.00 0.00 43 1013.7
20260507164412 62 158 1.0 2.0 0.00 0.00 0.00 53 1013.8
20260507163909 61 126 0.0 1.0 0.00 0.00 0.00 51 1013.7
20260507163406 60 124 1.0 1.0 0.00 0.00 0.00 49 1013.9
20260507162903 58 237 1.0 2.0 0.00 0.00 0.00 54 1014.1
20260507162358 59 242 3.0 3.0 0.00 0.00 0.00 43 1014.0
20260507161856 59 263 3.0 3.0 0.00 0.00 0.00 51 1014.0
20260507161352 58 114 0.0 0.0 0.00 0.00 0.00 53 1014.1
20260507160849 58 283 4.0 5.0 0.00 0.00 0.00 45 1014.1
20260507160344 57 257 4.0 5.0 0.00 0.00 0.00 45 1014.0
20260507155841 57 270 3.0 3.0 0.00 0.00 0.00 50 1014.0
20260507155336 58 247 4.0 5.0 0.00 0.00 0.00 45 1014.2
20260507154833 60 350 0.0 0.0 0.00 0.00 0.00 51 1014.1
20260507154331 59 70 1.0 1.0 0.00 0.00 0.00 43 1014.0
20260507153828 57 106 0.0 1.0 0.00 0.00 0.00 51 1014.2
20260507153324 57 257 3.0 3.0 0.00 0.00 0.00 49 1014.3
20260507152821 60 242 3.0 3.0 0.00 0.00 0.00 47 1014.1
20260507152317 59 212 0.0 0.0 0.00 0.00 0.00 52 1014.2
20260507151813 58 243 2.0 2.0 0.00 0.00 0.00 46 1014.2
20260507151309 57 192 1.0 1.0 0.00 0.00 0.00 53 1014.1
20260507150806 57 244 3.0 3.0 0.00 0.00 0.00 49 1014.0
20260507150303 57 193 1.0 2.0 0.00 0.00 0.00 43 1014.0
20260507145759 57 143 1.0 1.0 0.00 0.00 0.00 44 1013.8
20260507145256 56 103 0.0 0.0 0.00 0.00 0.00 50 1014.0
20260507144753 55 134 0.0 1.0 0.00 0.00 0.00 44 1014.1
20260507144250 56 17 0.0 0.0 0.00 0.00 0.00 53 1013.9
20260507143746 55 39 2.0 2.0 0.00 0.00 0.00 43 1013.9
20260507143244 55 58 2.0 2.0 0.00 0.00 0.00 43 1014.0
20260507142740 55 9 2.0 2.0 0.00 0.00 0.00 47 1014.2
20260507142237 55 154 1.0 1.0 0.00 0.00 0.00 51 1014.2
20260507141733 56 231 3.0 3.0 0.00 0.00 0.00 58 1014.1
20260507141230 55 70 0.0 1.0 0.00 0.00 0.00 55 1014.0
20260507140726 53 143 0.0 1.0 0.00 0.00 0.00 60 1014.2
20260507140224 54 100 0.0 1.0 0.00 0.00 0.00 65 1014.1
20260507135721 53 139 1.0 1.0 0.00 0.00 0.00 61 1013.9
20260507135218 52 197 1.0 1.0 0.00 0.00 0.00 58 1014.1
20260507134714 52 200 1.0 1.0 0.00 0.00 0.00 57 1014.2
20260507134210 51 231 3.0 3.0 0.00 0.00 0.00 63 1014.0
20260507133706 50 136 0.0 0.0 0.00 0.00 0.00 70 1014.3
20260507133204 50 185 1.0 2.0 0.00 0.00 0.00 67 1014.2
20260507132701 49 143 0.0 0.0 0.00 0.00 0.00 70 1014.1
20260507132157 49 169 1.0 1.0 0.00 0.00 0.00 68 1014.0
20260507131654 49 167 0.0 1.0 0.00 0.00 0.00 68 1014.1
20260507131152 49 153 0.0 0.0 0.00 0.00 0.00 74 1014.1
20260507130648 47 207 2.0 2.0 0.00 0.00 0.00 73 1014.1
20260507130146 46 193 1.0 1.0 0.00 0.00 0.00 74 1014.0
20260507125644 45 153 0.0 0.0 0.00 0.00 0.00 79 1014.1
20260507125142 44 193 0.0 0.0 0.00 0.00 0.00 81 1014.2
20260507124638 44 156 0.0 0.0 0.00 0.00 0.00 84 1014.2
20260507124136 43 157 0.0 0.0 0.00 0.00 0.00 86 1013.9
20260507123634 42 154 0.0 0.0 0.00 0.00 0.00 88 1014.0
20260507123131 42 156 0.0 0.0 0.00 0.00 0.00 90 1014.2
20260507122626 42 157 0.0 0.0 0.00 0.00 0.00 91 1014.0
20260507122122 41 161 0.0 0.0 0.00 0.00 0.00 91 1013.7
20260507121618 40 163 0.0 0.0 0.00 0.00 0.00 91 1013.8
20260507121114 40 162 0.0 0.0 0.00 0.00 0.00 94 1013.6
20260507120610 39 157 0.0 0.0 0.00 0.00 0.00 96 1013.9
20260507120107 39 156 0.0 0.0 0.00 0.00 0.00 97 1013.7
20260507115603 39 155 0.0 0.0 0.00 0.00 0.00 98 1013.4
20260507115059 39 155 0.0 0.0 0.00 0.00 0.00 98 1013.7
20260507114555 39 174 0.0 0.0 0.00 0.00 0.00 98 1013.6
20260507114053 38 169 0.0 0.0 0.00 0.00 0.00 99 1013.5
20260507113549 38 152 0.0 0.0 0.00 0.00 0.00 99 1013.6
20260507113047 37 154 0.0 0.0 0.00 0.00 0.00 99 1013.7
20260507112545 37 157 0.0 0.0 0.00 0.00 0.00 99 1013.4
20260507112041 37 165 0.0 0.0 0.00 0.00 0.00 99 1013.2
20260507111538 37 170 0.0 0.0 0.00 0.00 0.00 99 1013.4
20260507111035 36 158 0.0 0.0 0.00 0.00 0.00 99 1013.4
20260507110531 36 157 0.0 0.0 0.00 0.00 0.00 99 1013.4
20260507110028 36 156 0.0 0.0 0.00 0.00 0.00 99 1013.0
20260507105525 36 154 0.0 0.0 0.00 0.00 0.00 99 1013.3
20260507105020 36 159 0.0 0.0 0.00 0.00 0.00 99 1013.3
20260507104518 36 175 0.0 0.0 0.00 0.00 0.00 99 1013.5
20260507104015 36 173 0.0 0.0 0.00 0.00 0.00 99 1013.5
20260507103511 36 155 0.0 0.0 0.00 0.00 0.00 99 1013.4
20260507103007 36 158 0.0 0.0 0.00 0.00 0.00 99 1013.4
20260507102504 36 162 0.0 0.0 0.00 0.00 0.00 99 1013.7
20260507102000 36 154 0.0 0.0 0.00 0.00 0.00 99 1013.5
20260507101455 36 159 0.0 0.0 0.00 0.00 0.00 99 1013.8
20260507100952 36 166 0.0 0.0 0.00 0.00 0.00 99 1013.4
20260507100450 36 156 0.0 0.0 0.00 0.00 0.00 99 1013.3
20260507095948 36 157 0.0 0.0 0.00 0.00 0.00 99 1013.3
20260507095445 36 157 0.0 0.0 0.00 0.00 0.00 99 1013.3
20260507094942 37 160 0.0 0.0 0.00 0.00 0.00 99 1013.4
20260507094438 37 161 0.0 0.0 0.00 0.00 0.00 98 1013.4
20260507093935 36 166 0.0 0.0 0.00 0.00 0.00 98 1013.4
20260507093433 36 159 0.0 0.0 0.00 0.00 0.00 98 1013.5
20260507092931 37 161 0.0 0.0 0.00 0.00 0.00 98 1013.3
20260507092427 37 166 0.0 0.0 0.00 0.00 0.00 98 1013.3
20260507091924 37 179 0.0 0.0 0.00 0.00 0.00 98 1013.2
20260507091420 37 152 0.0 0.0 0.00 0.00 0.00 98 1013.1
20260507090916 37 152 0.0 0.0 0.00 0.00 0.00 98 1013.2
20260507090412 37 168 0.0 0.0 0.00 0.00 0.00 98 1013.3
20260507085909 37 159 0.0 0.0 0.00 0.00 0.00 98 1013.6
20260507085406 37 158 0.0 0.0 0.00 0.00 0.00 98 1013.6
20260507084903 37 163 0.0 0.0 0.00 0.00 0.00 97 1013.6
20260507084400 37 162 0.0 0.0 0.00 0.00 0.00 97 1013.4
20260507083857 37 171 0.0 0.0 0.00 0.00 0.00 97 1013.3
20260507083353 37 146 0.0 0.0 0.00 0.00 0.00 97 1013.3
20260507082850 37 159 0.0 0.0 0.00 0.00 0.00 97 1013.1
20260507082345 38 164 0.0 0.0 0.00 0.00 0.00 97 1013.3
20260507081843 38 165 0.0 0.0 0.00 0.00 0.00 97 1013.2
20260507081339 38 170 0.0 0.0 0.00 0.00 0.00 97 1013.1
20260507080836 38 160 0.0 0.0 0.00 0.00 0.00 96 1013.1
20260507080332 38 163 0.0 0.0 0.00 0.00 0.00 96 1013.3
20260507075828 38 174 0.0 0.0 0.00 0.00 0.00 96 1013.3
20260507075324 39 152 0.0 0.0 0.00 0.00 0.00 96 1013.2
20260507074820 39 168 0.0 0.0 0.00 0.00 0.00 96 1013.2
20260507074318 39 163 0.0 0.0 0.00 0.00 0.00 96 1013.2
20260507073815 39 162 0.0 0.0 0.00 0.00 0.00 95 1013.2
20260507073311 39 150 0.0 0.0 0.00 0.00 0.00 95 1013.2
20260507072809 39 156 0.0 0.0 0.00 0.00 0.00 95 1013.3
20260507072308 39 161 0.0 0.0 0.00 0.00 0.00 94 1013.2
20260507071803 39 162 0.0 0.0 0.00 0.00 0.00 94 1013.2
20260507071300 40 163 0.0 0.0 0.00 0.00 0.00 93 1013.2
20260507070756 40 162 0.0 0.0 0.00 0.00 0.00 93 1013.3
20260507070254 40 164 0.0 0.0 0.00 0.00 0.00 93 1013.3
20260507065750 40 162 0.0 0.0 0.00 0.00 0.00 92 1013.4
20260507065247 41 162 0.0 0.0 0.00 0.00 0.00 91 1013.4
20260507064744 41 161 0.0 0.0 0.00 0.00 0.00 90 1013.4
20260507064243 41 165 0.0 0.0 0.00 0.00 0.00 90 1013.4
20260507063740 41 170 0.0 0.0 0.00 0.00 0.00 91 1013.6
20260507063237 41 150 0.0 0.0 0.00 0.00 0.00 89 1013.6
20260507062734 42 149 0.0 0.0 0.00 0.00 0.00 89 1013.7
20260507062231 42 149 0.0 0.0 0.00 0.00 0.00 88 1013.6
20260507061730 42 150 0.0 0.0 0.00 0.00 0.00 87 1013.8
20260507061227 43 149 0.0 0.0 0.00 0.00 0.00 85 1013.6
20260507060725 43 147 0.0 0.0 0.00 0.00 0.00 85 1013.6
20260507060221 44 157 0.0 0.0 0.00 0.00 0.00 83 1013.5
20260507055717 44 150 0.0 0.0 0.00 0.00 0.00 78 1013.6
20260507055213 44 159 0.0 0.0 0.00 0.00 0.00 77 1013.8
20260507054709 44 159 0.0 0.0 0.00 0.00 0.00 81 1013.5
20260507054206 44 154 0.0 0.0 0.00 0.00 0.00 77 1013.6
20260507053704 44 172 0.0 0.0 0.00 0.00 0.00 79 1013.6
20260507053202 43 154 0.0 0.0 0.00 0.00 0.00 81 1013.4
20260507052700 43 154 0.0 0.0 0.00 0.00 0.00 84 1013.5
20260507052156 43 167 0.0 0.0 0.00 0.00 0.00 88 1013.5
20260507051654 43 162 0.0 0.0 0.00 0.00 0.00 89 1013.5
20260507051150 42 156 0.0 0.0 0.00 0.00 0.00 89 1013.4
20260507050647 42 153 0.0 0.0 0.00 0.00 0.00 95 1013.3
20260507050144 42 164 0.0 0.0 0.00 0.00 0.00 96 1013.4
20260507045641 42 172 0.0 0.0 0.00 0.00 0.00 96 1013.4
20260507045137 42 152 0.0 0.0 0.00 0.00 0.00 95 1013.1
20260507044634 42 167 0.0 0.0 0.00 0.00 0.00 96 1013.3
20260507044131 42 168 0.0 0.0 0.00 0.00 0.00 97 1013.3
20260507043627 42 161 0.0 0.0 0.00 0.00 0.00 97 1013.2
20260507043124 42 162 0.0 0.0 0.00 0.00 0.00 97 1013.3
20260507042620 42 155 0.0 0.0 0.00 0.00 0.00 97 1013.3
20260507042116 42 154 0.0 0.0 0.00 0.00 0.00 97 1013.2
20260507041613 42 156 0.0 0.0 0.00 0.00 0.00 97 1013.2
20260507041110 42 158 0.0 0.0 0.00 0.00 0.00 97 1013.3
20260507040607 42 160 0.0 0.0 0.00 0.00 0.00 97 1013.3
20260507035559 42 158 0.0 0.0 0.00 0.07 0.07 96 1013.2
20260507035055 42 154 0.0 0.0 0.00 0.07 0.07 96 1013.4
20260507034552 42 149 0.0 0.0 0.00 0.07 0.07 96 1013.3
20260507034050 43 149 0.0 0.0 0.00 0.07 0.07 96 1013.4
20260507033548 43 156 0.0 0.0 0.00 0.07 0.07 95 1013.1
20260507033044 43 158 0.0 0.0 0.00 0.07 0.07 95 1013.4
20260507032541 43 157 0.0 0.0 0.00 0.07 0.07 95 1013.5
20260507032038 43 159 0.0 0.0 0.00 0.07 0.07 95 1013.3
20260507031534 43 160 0.0 0.0 0.00 0.07 0.07 94 1013.3
20260507031032 44 162 0.0 0.0 0.00 0.07 0.07 94 1013.1
20260507030528 44 155 0.0 0.0 0.00 0.07 0.07 94 1013.3
20260507030026 44 160 0.0 0.0 0.00 0.07 0.07 94 1013.2
20260507025523 44 165 0.0 0.0 0.00 0.07 0.07 93 1013.1
20260507025020 44 162 0.0 0.0 0.00 0.07 0.07 93 1013.0
20260507024518 45 165 0.0 0.0 0.00 0.07 0.07 93 1013.1
20260507024014 45 164 0.0 0.0 0.00 0.07 0.07 92 1013.1
20260507023510 45 161 0.0 0.0 0.00 0.07 0.07 92 1013.2
20260507023008 45 164 0.0 0.0 0.00 0.07 0.07 92 1013.3
20260507022505 45 159 0.0 0.0 0.00 0.07 0.07 90 1013.0